Location: St. Louis
(38.6270°N, 90.1994°W)
Time: 04:40:05
(UTC-05:00)

RS-15 - Pass Details

Date: 29 January 2022
Orbit: 1881 x 2163 km, 64.8° (Epoch: 20 May)

Event Time Altitude Azimuth Distance (km) Brightness Sun altitude
Rises 00:16:38 0° 324° (NW) 5,648 10.7 -69.3°
Reaches altitude 10° 00:20:46 10° 334° (NNW) 4,666 10.1 -69.2°
Enters shadow 00:22:31 15° 340° (NNW) 4,284 9.9 -69.2°
